Monroe, MI

12:27 PM EST on February 25, 2017 (GMT -0500)
Custer

Weather History for KTTF - October, 2013

Change the Weather History Date:

Monday, October 7, 2013

  Actual Average Record
Temperature  
Mean Temperature 54 °F -  
Max Temperature 62 °F 65 °F 90 °F (1963)
Min Temperature 46 °F 45 °F 30 °F (1952)
Degree Days  
Heating Degree Days 11    
Growing Degree Days 4 (Base 50)    
Moisture  
Dew Point 47 °F    
Average Humidity 78    
Maximum Humidity 100    
Minimum Humidity 55    
Precipitation  
Precipitation 0.00 in - - ()
Sea Level Pressure  
Sea Level Pressure 29.86 in    
Wind  
Wind Speed 9 mph (WSW)    
Max Wind Speed 21 mph    
Max Gust Speed 28 mph    
Visibility 10 miles    
Events Rain    
Averages and records for this station are not official NWS values.
T = Trace of Precipitation, MM = Missing Value Source: NWS Daily Summary

Daily Weather History Graph

Daily Weather History Graph

Search for Another Location

Airport or City:

Trip Planner

Search our weather history database for the weather conditions in past years. The results will help you decide how hot, cold, wet, or windy it might be!

Date:

Astronomy

Oct. 07, 2013 Rise Set
Actual Time 7:37 AM EDT 7:04 PM EDT
Civil Twilight 7:09 AM EDT 7:32 PM EDT
Nautical Twilight 6:37 AM EDT 8:04 PM EDT
Astronomical Twilight 6:04 AM EDT 8:37 PM EDT
Moon 10:29 AM EDT (10/7) 8:45 PM EDT (10/7)
Length of Visible Light 12h 23m
Length of Day
11h 27m
Waxing Crescent, 8% of the Moon is Illuminated
Oct 7
Waxing Crescent
Oct 11
First Quarter
Oct 18
Full
Oct 26
Last Quarter
Nov 3
New

Hourly Weather History & Observations

Time (EDT) Temp. Windchill Dew Point Humidity Pressure Visibility Wind Dir Wind Speed Gust Speed Precip Events Conditions
12:12 AM 57.2 °F - 55.4 °F 94% 29.72 in 10.0 mi SW 4.6 mph - N/A   Clear
12:32 AM 57.2 °F - 55.4 °F 94% 29.72 in 10.0 mi SW 4.6 mph - N/A   Clear
12:52 AM 57.2 °F - 55.4 °F 94% 29.71 in 10.0 mi SW 3.5 mph - N/A   Clear
1:12 AM 57.2 °F - 55.4 °F 94% 29.71 in 10.0 mi SW 4.6 mph - N/A   Scattered Clouds
1:33 AM 57.2 °F - 55.4 °F 94% 29.70 in 10.0 mi SSW 3.5 mph - N/A   Overcast
1:53 AM 57.2 °F - 55.4 °F 94% 29.70 in 10.0 mi SW 5.8 mph - N/A   Overcast
2:13 AM 57.2 °F - 53.6 °F 88% 29.70 in 10.0 mi WSW 11.5 mph 18.4 mph N/A   Overcast
2:33 AM 55.4 °F - 50.0 °F 82% 29.72 in 10.0 mi WSW 13.8 mph 19.6 mph N/A   Overcast
2:53 AM 53.6 °F - 48.2 °F 82% 29.73 in 10.0 mi WSW 15.0 mph - N/A Rain Rain
3:13 AM 53.6 °F - 48.2 °F 82% 29.73 in 10.0 mi WSW 10.4 mph - N/A   Overcast
3:33 AM 53.6 °F - 46.4 °F 77% 29.72 in 10.0 mi WSW 10.4 mph - N/A   Overcast
3:53 AM 53.6 °F - 48.2 °F 82% 29.73 in 10.0 mi WSW 15.0 mph 19.6 mph N/A   Overcast
4:13 AM 51.8 °F - 46.4 °F 82% 29.73 in 10.0 mi WSW 10.4 mph 17.3 mph N/A   Mostly Cloudy
4:33 AM 51.8 °F - 44.6 °F 76% 29.74 in 10.0 mi WSW 12.7 mph 20.7 mph N/A   Scattered Clouds
4:53 AM 50.0 °F - 44.6 °F 82% 29.74 in 10.0 mi WSW 12.7 mph 17.3 mph N/A   Clear
5:13 AM 50.0 °F - 44.6 °F 82% 29.75 in 10.0 mi WSW 9.2 mph - N/A   Clear
5:34 AM 48.2 °F - 44.6 °F 87% 29.75 in 10.0 mi WSW 9.2 mph - N/A   Clear
5:54 AM 48.2 °F - 44.6 °F 87% 29.76 in 10.0 mi SW 6.9 mph - N/A   Clear
6:14 AM 48.2 °F - 44.6 °F 87% 29.76 in 10.0 mi SW 9.2 mph - N/A   Clear
6:34 AM 46.4 °F 42.4 °F 42.8 °F 87% 29.76 in 10.0 mi SW 8.1 mph - N/A   Clear
6:54 AM 46.4 °F 42.4 °F 42.8 °F 87% 29.77 in 10.0 mi SW 8.1 mph - N/A   Clear
7:14 AM 46.4 °F 43.5 °F 42.8 °F 87% 29.77 in 10.0 mi SW 5.8 mph - N/A   Clear
7:34 AM 46.4 °F 43.5 °F 42.8 °F 87% 29.77 in 10.0 mi WSW 5.8 mph - N/A   Clear
7:54 AM 46.4 °F 43.5 °F 42.8 °F 87% 29.78 in 10.0 mi WSW 5.8 mph - N/A   Clear
8:15 AM 46.4 °F 42.4 °F 44.6 °F 93% 29.79 in 10.0 mi WSW 8.1 mph - N/A   Clear
8:35 AM 48.2 °F - 44.6 °F 87% 29.80 in 10.0 mi SW 9.2 mph - N/A   Scattered Clouds
8:55 AM 48.2 °F - 44.6 °F 87% 29.79 in 10.0 mi SW 11.5 mph 17.3 mph N/A   Mostly Cloudy
9:15 AM 48.2 °F - 44.6 °F 87% 29.80 in 10.0 mi SW 12.7 mph 17.3 mph N/A   Scattered Clouds
9:35 AM 50.0 °F - 44.6 °F 82% 29.81 in 10.0 mi WSW 12.7 mph 19.6 mph N/A   Mostly Cloudy
9:55 AM 51.8 °F - 46.4 °F 82% 29.81 in 10.0 mi WSW 12.7 mph 19.6 mph N/A   Scattered Clouds
10:15 AM 51.8 °F - 46.4 °F 82% 29.81 in 10.0 mi WSW 11.5 mph - N/A   Scattered Clouds
10:35 AM 53.6 °F - 46.4 °F 77% 29.82 in 10.0 mi WSW 17.3 mph 21.9 mph N/A   Scattered Clouds
10:55 AM 55.4 °F - 46.4 °F 72% 29.82 in 10.0 mi WSW 15.0 mph 20.7 mph N/A   Scattered Clouds
11:15 AM 55.4 °F - 44.6 °F 67% 29.82 in 10.0 mi West 15.0 mph 21.9 mph N/A   Clear
11:35 AM 57.2 °F - 44.6 °F 63% 29.82 in 10.0 mi WSW 13.8 mph 25.3 mph N/A   Mostly Cloudy
11:56 AM 55.4 °F - 44.6 °F 67% 29.83 in 10.0 mi WSW 16.1 mph 26.5 mph N/A   Overcast
12:16 PM 57.2 °F - 46.4 °F 67% 29.83 in 10.0 mi WSW 16.1 mph - N/A   Overcast
12:36 PM 59.0 °F - 46.4 °F 63% 29.83 in 10.0 mi WSW 17.3 mph 25.3 mph N/A   Mostly Cloudy
12:56 PM 59.0 °F - 46.4 °F 63% 29.83 in 10.0 mi WSW 17.3 mph 25.3 mph N/A   Mostly Cloudy
1:16 PM 60.8 °F - 46.4 °F 59% 29.84 in 10.0 mi WSW 15.0 mph 23.0 mph N/A   Mostly Cloudy
1:36 PM 60.8 °F - 46.4 °F 59% 29.83 in 10.0 mi WSW 13.8 mph 27.6 mph N/A   Mostly Cloudy
1:56 PM 60.8 °F - 46.4 °F 59% 29.84 in 10.0 mi West 16.1 mph 25.3 mph N/A   Mostly Cloudy
2:16 PM 62.6 °F - 46.4 °F 55% 29.84 in 10.0 mi WSW 18.4 mph 25.3 mph N/A   Overcast
2:32 PM 62.6 °F - 46.4 °F 55% 29.84 in 10.0 mi West 19.6 mph 27.6 mph N/A   Overcast
2:52 PM 60.8 °F - 46.4 °F 59% 29.85 in 10.0 mi WSW 17.3 mph 25.3 mph N/A   Overcast
3:12 PM 62.6 °F - 46.4 °F 55% 29.86 in 10.0 mi WSW 19.6 mph - N/A   Overcast
3:32 PM 60.8 °F - 46.4 °F 59% 29.87 in 10.0 mi West 15.0 mph 26.5 mph N/A   Overcast
3:52 PM 60.8 °F - 48.2 °F 63% 29.89 in 10.0 mi West 20.7 mph 27.6 mph N/A   Overcast
4:12 PM 59.0 °F - 48.2 °F 67% 29.90 in 10.0 mi West 16.1 mph 27.6 mph N/A   Overcast
4:32 PM 59.0 °F - 51.8 °F 77% 29.91 in 10.0 mi West 12.7 mph 20.7 mph N/A   Overcast
4:52 PM 60.8 °F - 51.8 °F 72% 29.91 in 10.0 mi West 15.0 mph 21.9 mph N/A   Mostly Cloudy
5:12 PM 60.8 °F - 51.8 °F 72% 29.91 in 10.0 mi West 11.5 mph 21.9 mph N/A   Mostly Cloudy
5:32 PM 60.8 °F - 50.0 °F 68% 29.92 in 10.0 mi West 13.8 mph 17.3 mph N/A   Scattered Clouds
5:52 PM 62.6 °F - 50.0 °F 63% 29.92 in 10.0 mi WNW 11.5 mph 20.7 mph N/A   Scattered Clouds
6:12 PM 62.6 °F - 48.2 °F 59% 29.93 in 10.0 mi West 10.4 mph 18.4 mph N/A   Scattered Clouds
6:33 PM 60.8 °F - 48.2 °F 63% 29.95 in 10.0 mi West 10.4 mph - N/A   Clear
6:53 PM 59.0 °F - 48.2 °F 67% 29.96 in 10.0 mi West 8.1 mph - N/A   Clear
7:13 PM 57.2 °F - 48.2 °F 72% 29.98 in 10.0 mi West 4.6 mph - N/A   Clear
7:33 PM 55.4 °F - 48.2 °F 77% 29.99 in 10.0 mi West 3.5 mph - N/A   Clear
7:53 PM 53.6 °F - 48.2 °F 82% 30.00 in 10.0 mi WSW 3.5 mph - N/A   Clear
8:13 PM 51.8 °F - 46.4 °F 82% 30.01 in 10.0 mi WSW 3.5 mph - N/A   Clear
8:33 PM 51.8 °F - 48.2 °F 88% 30.03 in 10.0 mi Calm Calm - N/A   Clear
8:54 PM 53.6 °F - 48.2 °F 82% 30.04 in 10.0 mi West 3.5 mph - N/A   Clear
9:14 PM 51.8 °F - 48.2 °F 88% 30.05 in 10.0 mi West 5.8 mph - N/A   Clear
9:34 PM 51.8 °F - 46.4 °F 82% 30.07 in 10.0 mi West 4.6 mph - N/A   Clear
9:54 PM 51.8 °F - 46.4 °F 82% 30.08 in 10.0 mi West 4.6 mph - N/A   Clear
10:14 PM 50.0 °F - 46.4 °F 87% 30.08 in 10.0 mi West 3.5 mph - N/A   Clear
10:34 PM 51.8 °F - 46.4 °F 82% 30.09 in 10.0 mi West 3.5 mph - N/A   Clear
10:54 PM 48.2 °F - 46.4 °F 93% 30.10 in 10.0 mi WSW 4.6 mph - N/A   Clear
11:14 PM 48.2 °F - 44.6 °F 87% 30.10 in 10.0 mi West 4.6 mph - N/A   Clear
11:34 PM 48.2 °F - 44.6 °F 87% 30.11 in 10.0 mi Calm Calm - N/A   Clear
11:54 PM 46.4 °F - 46.4 °F 100% 30.12 in 10.0 mi Calm Calm - N/A   Clear